TimeAST,TemperatureF,Dew PointF,Humidity,Sea Level PressureIn,VisibilityMPH,Wind Direction,Wind SpeedMPH,Gust SpeedMPH,PrecipitationIn,Events,Conditions,WindDirDegrees,DateUTC
12:00 AM,-9999,-9999,N/A,29.83,-9999.0,North,-9999.0,-,N/A,,Unknown,0,2011-12-06 04:00:00
1:00 AM,78.8,73.4,83,29.83,-9999.0,North,-9999.0,-,N/A,,Unknown,0,2011-12-06 05:00:00
2:00 AM,78,73,81,,16,Calm,Calm,,,,Clear,10,2011-12-06 06:00:00
2:00 AM,77.0,73.4,89,29.80,-9999.0,North,-9999.0,-,N/A,,Unknown,0,2011-12-06 06:00:00
3:00 AM,77.0,73.4,89,29.77,-9999.0,North,-9999.0,-,N/A,,Unknown,0,2011-12-06 07:00:00
4:00 AM,77.0,73.4,89,29.77,-9999.0,North,-9999.0,-,N/A,,Unknown,0,2011-12-06 08:00:00
5:00 AM,77,74,87,,,Calm,Calm,,,,Clear,,2011-12-06 09:00:00
5:00 AM,77.0,73.4,89,29.77,-9999.0,North,-9999.0,-,N/A,,Unknown,0,2011-12-06 09:00:00
6:00 AM,77.0,73.4,89,29.80,-9999.0,North,-9999.0,-,N/A,,Unknown,0,2011-12-06 10:00:00
7:00 AM,77.0,73.4,89,29.80,-9999.0,North,-9999.0,-,N/A,,Unknown,0,2011-12-06 11:00:00
8:00 AM,83,77,76,29.85,25,,2.3,,,,Partly Cloudy,,2011-12-06 12:00:00
8:00 AM,82.4,77.0,84,29.83,6.2,Variable,2.3,-,N/A,,Partly Cloudy,0,2011-12-06 12:00:00
9:00 AM,82.4,75.2,79,29.86,6.2,Variable,2.3,-,N/A,,Scattered Clouds,0,2011-12-06 13:00:00
10:00 AM,80.6,75.2,84,29.86,6.2,East,4.6,-,N/A,,Scattered Clouds,90,2011-12-06 14:00:00
11:00 AM,86.0,75.2,70,29.86,6.2,East,10.4,-,N/A,,Scattered Clouds,90,2011-12-06 15:00:00
12:00 PM,86.0,75.2,70,29.83,-9999.0,North,-9999.0,-,N/A,,Unknown,0,2011-12-06 16:00:00
1:00 PM,84.2,75.2,74,29.80,6.2,East,10.4,-,N/A,,Scattered Clouds,80,2011-12-06 17:00:00
2:00 PM,84.2,75.2,74,29.77,6.2,East,9.2,-,N/A,,Scattered Clouds,80,2011-12-06 18:00:00
3:00 PM,80.6,75.2,84,29.77,6.2,East,9.2,-,N/A,,Mostly Cloudy,80,2011-12-06 19:00:00
4:00 PM,78.8,75.2,89,29.74,6.2,SE,9.2,-,N/A,,Mostly Cloudy,140,2011-12-06 20:00:00
7:00 PM,78.8,75.2,89,29.77,6.2,Variable,3.5,-,N/A,,Scattered Clouds,0,2011-12-06 23:00:00
8:00 PM,78.8,75.2,89,29.80,-9999.0,North,-9999.0,-,N/A,,Unknown,0,2011-12-07 00:00:00
9:00 PM,77.0,75.2,94,29.83,-9999.0,North,-9999.0,-,N/A,,Unknown,0,2011-12-07 01:00:00
10:00 PM,77.0,75.2,94,29.83,-9999.0,North,-9999.0,-,N/A,,Unknown,0,2011-12-07 02:00:00
11:00 PM,77,75,92,,,Calm,Calm,,,,Clear,10,2011-12-07 03:00:00
11:00 PM,77.0,75.2,94,29.83,-9999.0,Calm,Calm,-,N/A,,Scattered Clouds,0,2011-12-07 03:00:00